This is the latest recevied weather packets stored in our database for station/object VE6KEE-13. If no packets are shown the sender has not sent any weather packets the latest 10 day(s).
| Time | Temp. | Humidity | Pressure | Rain* | Wind** | Luminosity | Snow |
|---|---|---|---|---|---|---|---|
| 1777952105 | 8.33° C | 33% | 1019.6 hPa | 0 mm | - | - | - |
| 1777951204 | 8.33° C | 32% | 1019.5 hPa | 0 mm | - | - | - |
| 1777950304 | 8.89° C | 32% | 1019.3 hPa | 0 mm | - | - | - |
| 1777949405 | 8.89° C | 31% | 1019.2 hPa | 0 mm | - | - | - |
| 1777948510 | 9.44° C | 31% | 1019.1 hPa | 0 mm | - | - | - |
| 1777947605 | 9.44° C | 30% | 1019.2 hPa | 0 mm | - | - | - |
| 1777946704 | 10° C | 29% | 1019.2 hPa | 0 mm | - | - | - |
| 1777945799 | 10° C | 29% | 1019 hPa | 0 mm | - | - | - |
| 1777944899 | 10.56° C | 28% | 1018.9 hPa | 0 mm | - | - | - |
| 1777943999 | 11.11° C | 28% | 1018.8 hPa | 0 mm | - | - | - |
| 1777943104 | 11.11° C | 27% | 1018.8 hPa | 0 mm | - | - | - |
| 1777942199 | 11.67° C | 26% | 1018.7 hPa | 0 mm | - | - | - |
| 1777941299 | 12.22° C | 26% | 1018.7 hPa | 0 mm | - | - | - |
| 1777940399 | 12.78° C | 25% | 1018.7 hPa | 0 mm | - | - | - |
| 1777939499 | 12.78° C | 24% | 1018.6 hPa | 0 mm | - | - | - |
| 1777938594 | 13.33° C | 24% | 1018.7 hPa | 0 mm | - | - | - |
| 1777937699 | 14.44° C | 23% | 1018.5 hPa | 0 mm | - | - | - |
| 1777936793 | 15° C | 23% | 1018.4 hPa | 0 mm | - | - | - |
| 1777935893 | 15.56° C | 22% | 1018.2 hPa | 0 mm | - | - | - |
| 1777934993 | 16.11° C | 21% | 1018.1 hPa | 0 mm | - | - | - |
| 1777934093 | 17.22° C | 20% | 1018 hPa | 0 mm | - | - | - |
| 1777933193 | 17.78° C | 19% | 1017.9 hPa | 0 mm | - | - | - |
| 1777932293 | 18.33° C | 19% | 1017.9 hPa | 0 mm | - | - | - |
| 1777931388 | 18.89° C | 18% | 1017.7 hPa | 0 mm | - | - | - |
| 1777930488 | 18.89° C | 18% | 1017.7 hPa | 0 mm | - | - | - |
* Rain since midnight (hover to see other rain measurements)
** Current wind speed in m/s (hover to see current wind gust speed)